Location: Moscow Pond
(43.6842°N, 73.2366°W)
Time: 07:38:30
(UTC+00:00)

Cosmos 1869 - Pass Details

Date: 08 November 2025
Orbit: 453 x 481 km, 82.5° (Epoch: 06 December)

Event Time Altitude Azimuth Distance (km) Brightness Sun altitude
Rises 10:58:10 0° 348° (NNW) 2,480 6.4 -7.7°
Reaches altitude 10° 11:00:16 10° 345° (NNW) 1,600 5.4 -7.3°
Maximum altitude 11:03:42 60° 264° (W) 524 2.9 -6.7°
Drops below altitude 10° 11:07:07 10° 184° (S) 1,584 5.8 -6.1°
Sets 11:09:11 0° 181° (S) 2,453 6.9 -5.8°
